Time,TemperatureF,DewpointF,PressureIn,WindDirection,WindDirectionDegrees,WindSpeedMPH,WindSpeedGustMPH,Humidity,HourlyPrecipIn,Conditions,Clouds,dailyrainin,SoftwareType,DateUTC
2013-08-14 00:09:00,57.6,53.4,29.78,NE,45,2.2,-999.0,86,-99.99,,,0.00,Acu-Link.com,2013-08-14 07:09:00,
2013-08-14 00:24:00,57.6,53.4,29.78,NE,45,2.7,-999.0,86,-99.99,,,0.00,Acu-Link.com,2013-08-14 07:24:00,
2013-08-14 00:39:00,57.0,53.5,29.78,SSE,157,1.7,-999.0,88,-99.99,,,0.00,Acu-Link.com,2013-08-14 07:39:00,
2013-08-14 00:54:00,57.0,53.8,29.78,North,0,3.2,-999.0,89,-99.99,,,0.00,Acu-Link.com,2013-08-14 07:54:00,
2013-08-14 01:10:00,57.0,54.1,29.78,SE,135,0.0,-999.0,90,-99.99,,,0.00,Acu-Link.com,2013-08-14 08:10:00,
2013-08-14 01:25:00,57.0,54.1,29.78,WNW,292,3.7,-999.0,90,-99.99,,,0.00,Acu-Link.com,2013-08-14 08:25:00,
2013-08-14 01:40:00,57.0,54.1,29.77,NNW,337,6.8,-999.0,90,-99.99,,,0.00,Acu-Link.com,2013-08-14 08:40:00,
2013-08-14 01:55:00,57.0,54.4,29.77,North,0,3.7,-999.0,91,-99.99,,,0.00,Acu-Link.com,2013-08-14 08:55:00,
2013-08-14 02:10:00,56.8,54.2,29.78,WNW,292,1.1,-999.0,91,-99.99,,,0.00,Acu-Link.com,2013-08-14 09:10:00,
2013-08-14 02:26:00,56.7,54.7,29.78,West,270,2.7,-999.0,93,-99.99,,,0.00,Acu-Link.com,2013-08-14 09:26:00,
2013-08-14 02:41:00,56.7,54.7,29.78,WSW,247,2.7,-999.0,93,-99.99,,,0.00,Acu-Link.com,2013-08-14 09:41:00,
2013-08-14 02:56:00,56.7,55.0,29.78,ESE,112,0.0,-999.0,94,-99.99,,,0.00,Acu-Link.com,2013-08-14 09:56:00,
2013-08-14 03:12:00,56.7,55.0,29.77,ESE,112,0.0,-999.0,94,-99.99,,,0.00,Acu-Link.com,2013-08-14 10:12:00,
2013-08-14 03:27:00,56.7,55.0,29.77,NW,315,2.2,-999.0,94,-99.99,,,0.00,Acu-Link.com,2013-08-14 10:27:00,
2013-08-14 03:42:00,56.7,55.0,29.78,ENE,67,1.7,-999.0,94,-99.99,,,0.00,Acu-Link.com,2013-08-14 10:42:00,
2013-08-14 03:58:00,56.7,55.3,29.78,ENE,67,0.0,-999.0,95,-99.99,,,0.00,Acu-Link.com,2013-08-14 10:58:00,
2013-08-14 04:13:00,56.5,55.1,29.77,West,270,1.7,-999.0,95,-99.99,,,0.00,Acu-Link.com,2013-08-14 11:13:00,
2013-08-14 04:28:00,56.3,54.9,29.78,West,270,4.2,-999.0,95,-99.99,,,0.00,Acu-Link.com,2013-08-14 11:28:00,
2013-08-14 04:43:00,56.3,54.9,29.77,West,270,1.1,-999.0,95,-99.99,,,0.00,Acu-Link.com,2013-08-14 11:43:00,
2013-08-14 04:59:00,55.9,54.5,29.78,NW,315,2.7,-999.0,95,-99.99,,,0.00,Acu-Link.com,2013-08-14 11:59:00,
2013-08-14 05:14:00,55.6,54.5,29.78,SW,225,4.2,-999.0,96,-99.99,,,0.00,Acu-Link.com,2013-08-14 12:14:00,
2013-08-14 05:29:00,55.4,54.3,29.78,SSE,157,2.7,-999.0,96,-99.99,,,0.00,Acu-Link.com,2013-08-14 12:29:00,
2013-08-14 05:44:00,55.4,54.6,29.78,North,0,4.2,-999.0,97,-99.99,,,0.00,Acu-Link.com,2013-08-14 12:44:00,
2013-08-14 06:00:00,55.2,54.4,29.79,NW,315,2.7,-999.0,97,-99.99,,,0.00,Acu-Link.com,2013-08-14 13:00:00,
2013-08-14 06:15:00,55.0,54.4,29.79,NNW,337,2.2,-999.0,98,-99.99,,,0.00,Acu-Link.com,2013-08-14 13:15:00,
2013-08-14 06:30:00,55.0,54.4,29.79,ESE,112,3.2,-999.0,98,-99.99,,,0.00,Acu-Link.com,2013-08-14 13:30:00,
2013-08-14 06:46:00,55.2,54.6,29.79,West,270,1.1,-999.0,98,-99.99,,,0.00,Acu-Link.com,2013-08-14 13:46:00,
2013-08-14 07:01:00,55.2,54.6,29.80,SW,225,2.2,-999.0,98,-99.99,,,0.00,Acu-Link.com,2013-08-14 14:01:00,
2013-08-14 07:16:00,55.8,55.0,29.79,NNW,337,4.2,-999.0,97,-99.99,,,0.00,Acu-Link.com,2013-08-14 14:16:00,
2013-08-14 07:31:00,55.8,54.7,29.80,NNW,337,5.8,-999.0,96,-99.99,,,0.00,Acu-Link.com,2013-08-14 14:31:00,
2013-08-14 07:47:00,56.5,54.8,29.80,North,0,3.7,-999.0,94,-99.99,,,0.00,Acu-Link.com,2013-08-14 14:47:00,
2013-08-14 08:02:00,57.2,54.9,29.80,North,0,4.2,-999.0,92,-99.99,,,0.00,Acu-Link.com,2013-08-14 15:02:00,
2013-08-14 08:17:00,60.3,56.1,29.80,West,270,2.2,-999.0,86,-99.99,,,0.00,Acu-Link.com,2013-08-14 15:17:00,
2013-08-14 08:32:00,61.7,55.5,29.80,WSW,247,5.8,-999.0,80,-99.99,,,0.00,Acu-Link.com,2013-08-14 15:32:00,
2013-08-14 08:48:00,63.3,56.3,29.80,NE,45,1.1,-999.0,78,-99.99,,,0.00,Acu-Link.com,2013-08-14 15:48:00,
2013-08-14 09:03:00,64.4,55.9,29.81,WSW,247,2.7,-999.0,74,-99.99,,,0.00,Acu-Link.com,2013-08-14 16:03:00,
2013-08-14 09:34:00,64.8,55.6,29.81,SW,225,2.7,-999.0,72,-99.99,,,0.00,Acu-Link.com,2013-08-14 16:34:00,
2013-08-14 09:49:00,63.7,55.3,29.81,WNW,292,4.7,-999.0,74,-99.99,,,0.00,Acu-Link.com,2013-08-14 16:49:00,
2013-08-14 10:04:00,65.3,56.0,29.81,SW,225,8.3,-999.0,72,-99.99,,,0.00,Acu-Link.com,2013-08-14 17:04:00,
2013-08-14 10:20:00,65.5,56.2,29.82,SW,225,2.7,-999.0,72,-99.99,,,0.00,Acu-Link.com,2013-08-14 17:20:00,
2013-08-14 11:06:00,68.0,56.6,29.81,West,270,3.2,-999.0,67,-99.99,,,0.00,Acu-Link.com,2013-08-14 18:06:00,
2013-08-14 11:21:00,70.2,57.0,29.81,NE,45,1.7,-999.0,63,-99.99,,,0.00,Acu-Link.com,2013-08-14 18:21:00,
2013-08-14 11:36:00,66.9,56.4,29.81,NW,315,7.3,-999.0,69,-99.99,,,0.00,Acu-Link.com,2013-08-14 18:36:00,
2013-08-14 12:07:00,70.3,57.1,29.81,NW,315,3.7,-999.0,63,-99.99,,,0.00,Acu-Link.com,2013-08-14 19:07:00,
2013-08-14 12:22:00,69.4,56.7,29.80,WNW,292,3.2,-999.0,64,-99.99,,,0.00,Acu-Link.com,2013-08-14 19:22:00,
2013-08-14 12:37:00,70.3,56.7,29.81,NNW,337,7.3,-999.0,62,-99.99,,,0.00,Acu-Link.com,2013-08-14 19:37:00,
2013-08-14 13:08:00,69.6,56.4,29.80,West,270,6.8,-999.0,63,-99.99,,,0.00,Acu-Link.com,2013-08-14 20:08:00,
2013-08-14 13:38:00,70.9,56.8,29.79,WSW,247,5.8,-999.0,61,-99.99,,,0.00,Acu-Link.com,2013-08-14 20:38:00,
2013-08-14 13:53:00,71.6,57.0,29.79,WNW,292,6.3,-999.0,60,-99.99,,,0.00,Acu-Link.com,2013-08-14 20:53:00,
2013-08-14 14:09:00,72.1,57.4,29.78,SSE,157,7.8,-999.0,60,-99.99,,,0.00,Acu-Link.com,2013-08-14 21:09:00,
2013-08-14 14:24:00,74.1,58.4,29.78,North,0,5.3,-999.0,58,-99.99,,,0.00,Acu-Link.com,2013-08-14 21:24:00,
2013-08-14 14:39:00,72.5,58.3,29.78,West,270,5.3,-999.0,61,-99.99,,,0.00,Acu-Link.com,2013-08-14 21:39:00,
2013-08-14 14:54:00,75.0,59.2,29.78,NNW,337,5.8,-999.0,58,-99.99,,,0.00,Acu-Link.com,2013-08-14 21:54:00,
2013-08-14 15:09:00,76.8,59.9,29.78,West,270,4.2,-999.0,56,-99.99,,,0.00,Acu-Link.com,2013-08-14 22:09:00,
2013-08-14 15:24:00,76.8,60.4,29.77,NW,315,5.3,-999.0,57,-99.99,,,0.00,Acu-Link.com,2013-08-14 22:24:00,
2013-08-14 15:39:00,75.2,60.3,29.77,West,270,7.8,-999.0,60,-99.99,,,0.00,Acu-Link.com,2013-08-14 22:39:00,
2013-08-14 15:54:00,77.0,61.6,29.76,SSW,202,3.7,-999.0,59,-99.99,,,0.00,Acu-Link.com,2013-08-14 22:54:00,
2013-08-14 16:10:00,75.0,61.5,29.76,North,0,3.7,-999.0,63,-99.99,,,0.00,Acu-Link.com,2013-08-14 23:10:00,
2013-08-14 16:25:00,71.8,61.5,29.76,ESE,112,3.7,-999.0,70,-99.99,,,0.00,Acu-Link.com,2013-08-14 23:25:00,
2013-08-14 16:40:00,70.3,60.8,29.76,NE,45,2.2,-999.0,72,-99.99,,,0.00,Acu-Link.com,2013-08-14 23:40:00,
2013-08-14 16:55:00,69.1,60.8,29.75,NW,315,5.3,-999.0,75,-99.99,,,0.00,Acu-Link.com,2013-08-14 23:55:00,
2013-08-14 17:10:00,67.8,61.0,29.75,North,0,4.2,-999.0,79,-99.99,,,0.00,Acu-Link.com,2013-08-15 00:10:00,
2013-08-14 17:26:00,68.5,61.4,29.74,WNW,292,4.7,-999.0,78,-99.99,,,0.00,Acu-Link.com,2013-08-15 00:26:00,
2013-08-14 17:41:00,70.0,61.7,29.74,West,270,2.7,-999.0,75,-99.99,,,0.00,Acu-Link.com,2013-08-15 00:41:00,
2013-08-14 17:56:00,70.3,61.6,29.74,North,0,4.7,-999.0,74,-99.99,,,0.00,Acu-Link.com,2013-08-15 00:56:00,
2013-08-14 18:12:00,69.6,61.3,29.74,NNW,337,6.3,-999.0,75,-99.99,,,0.00,Acu-Link.com,2013-08-15 01:12:00,
2013-08-14 18:27:00,68.2,61.1,29.74,West,270,2.7,-999.0,78,-99.99,,,0.00,Acu-Link.com,2013-08-15 01:27:00,
2013-08-14 18:42:00,65.7,60.7,29.73,NNW,337,3.7,-999.0,84,-99.99,,,0.00,Acu-Link.com,2013-08-15 01:42:00,
2013-08-14 18:57:00,64.4,60.4,29.73,NNW,337,2.7,-999.0,87,-99.99,,,0.00,Acu-Link.com,2013-08-15 01:57:00,
2013-08-14 19:12:00,63.0,60.3,29.73,ESE,112,3.7,-999.0,91,-99.99,,,0.00,Acu-Link.com,2013-08-15 02:12:00,
2013-08-14 19:28:00,62.6,60.2,29.74,SSE,157,5.8,-999.0,92,-99.99,,,0.00,Acu-Link.com,2013-08-15 02:28:00,
2013-08-14 19:43:00,62.2,60.1,29.73,NW,315,2.2,-999.0,93,-99.99,,,0.00,Acu-Link.com,2013-08-15 02:43:00,
2013-08-14 19:58:00,62.1,60.0,29.73,West,270,4.2,-999.0,93,-99.99,,,0.00,Acu-Link.com,2013-08-15 02:58:00,
2013-08-14 20:14:00,62.1,60.4,29.73,SSE,157,2.7,-999.0,94,-99.99,,,0.00,Acu-Link.com,2013-08-15 03:14:00,
2013-08-14 20:29:00,62.1,60.4,29.73,NW,315,4.7,-999.0,94,-99.99,,,0.00,Acu-Link.com,2013-08-15 03:29:00,
2013-08-14 20:44:00,61.9,60.2,29.73,NW,315,4.2,-999.0,94,-99.99,,,0.00,Acu-Link.com,2013-08-15 03:44:00,
2013-08-14 21:00:00,61.5,60.1,29.74,ESE,112,4.7,-999.0,95,-99.99,,,0.00,Acu-Link.com,2013-08-15 04:00:00,
2013-08-14 21:15:00,61.3,59.9,29.74,NNW,337,2.7,-999.0,95,-99.99,,,0.00,Acu-Link.com,2013-08-15 04:15:00,
2013-08-14 21:30:00,61.3,59.9,29.75,West,270,1.1,-999.0,95,-99.99,,,0.00,Acu-Link.com,2013-08-15 04:30:00,
2013-08-14 21:46:00,61.3,59.9,29.75,WNW,292,6.8,-999.0,95,-99.99,,,0.00,Acu-Link.com,2013-08-15 04:46:00,
2013-08-14 22:01:00,61.3,59.9,29.74,NNE,22,1.7,-999.0,95,-99.99,,,0.00,Acu-Link.com,2013-08-15 05:01:00,
2013-08-14 22:16:00,61.5,60.1,29.75,NNW,337,3.2,-999.0,95,-99.99,,,0.00,Acu-Link.com,2013-08-15 05:16:00,
2013-08-14 22:31:00,61.5,60.1,29.75,North,0,4.2,-999.0,95,-99.99,,,0.00,Acu-Link.com,2013-08-15 05:31:00,
2013-08-14 22:47:00,61.5,60.1,29.75,West,270,2.2,-999.0,95,-99.99,,,0.00,Acu-Link.com,2013-08-15 05:47:00,
2013-08-14 23:02:00,61.5,60.1,29.76,West,270,1.7,-999.0,95,-99.99,,,0.00,Acu-Link.com,2013-08-15 06:02:00,
2013-08-14 23:17:00,61.7,60.3,29.75,South,180,0.0,-999.0,95,-99.99,,,0.00,Acu-Link.com,2013-08-15 06:17:00,
2013-08-14 23:32:00,61.7,60.3,29.75,WSW,247,3.7,-999.0,95,-99.99,,,0.00,Acu-Link.com,2013-08-15 06:32:00,
2013-08-14 23:48:00,61.9,60.5,29.75,NNE,22,3.2,-999.0,95,-99.99,,,0.00,Acu-Link.com,2013-08-15 06:48:00,